Weather History for Poplar Bluff, MO

Change the Weather History Date:

Thursday, May 23, 2013

  Actual Average Record
Temperature  
Mean Temperature 68 °F -  
Max Temperature 80 °F 78 °F 94 °F (1925)
Min Temperature 57 °F 57 °F 40 °F (1931)
Cooling Degree Days 2    
Growing Degree Days 18 (Base 50)    
Moisture  
Dew Point 56 °F    
Average Humidity 66    
Maximum Humidity 90    
Minimum Humidity 43    
Precipitation  
Precipitation 0.00 in - - ()
Sea Level Pressure  
Sea Level Pressure 30.03 in    
Wind  
Wind Speed 6 mph (NNW)    
Max Wind Speed 16 mph    
Max Gust Speed 23 mph    
Visibility 10 miles    
Events      
Averages and records for this station are not official NWS values.
T = Trace of Precipitation, MM = Missing Value Source: NWS Daily Summary

Daily Weather History Graph

Daily Weather History Graph

Search for Another Location

Airport:

Trip Planner

Search our weather history database for the weather conditions in past years. The results will help you decide how hot, cold, wet, or windy it might be!

Date:

Astronomy

May. 23, 2013 Rise Set
Actual Time 5:47 AM CDT 8:08 PM CDT
Civil Twilight 5:18 AM CDT 8:38 PM CDT
Nautical Twilight 4:42 AM CDT 9:14 PM CDT
Astronomical Twilight 4:02 AM CDT 9:54 PM CDT
Moon 6:43 PM CDT (5/23) 4:30 AM CDT (5/23)
Length of Visible Light 15h 19m
Length of Day
14h 20m
Waxing Gibbous, 97% of the Moon is Illuminated
May 23
Waxing Gibbous
May 24
Full
May 31
Last Quarter
Jun 8
New
Jun 16
First Quarter

Hourly Weather History & Observations

Time (CDT) Temp. Dew Point Humidity Pressure Visibility Wind Dir Wind Speed Gust Speed Precip Events Conditions
12:53 AM 64.9 °F 57.0 °F 75% 29.91 in 10.0 mi NW 6.9 mph - N/A   Clear
1:53 AM 64.0 °F 55.0 °F 73% 29.90 in 10.0 mi Calm Calm - N/A   Clear
2:53 AM 61.0 °F 57.0 °F 87% 29.91 in 10.0 mi Calm Calm - N/A   Clear
3:53 AM 59.0 °F 55.9 °F 90% 29.92 in 10.0 mi Calm Calm - N/A   Clear
4:53 AM 59.0 °F 55.0 °F 87% 29.93 in 10.0 mi Calm Calm - N/A   Clear
5:53 AM 57.9 °F 55.0 °F 90% 29.95 in 10.0 mi Calm Calm - N/A   Clear
6:53 AM 61.0 °F 57.0 °F 87% 29.98 in 10.0 mi Calm Calm - N/A   Clear
7:53 AM 64.9 °F 55.9 °F 73% 29.99 in 10.0 mi WNW 8.1 mph - N/A   Clear
8:53 AM 69.1 °F 57.0 °F 65% 30.01 in 10.0 mi NW 5.8 mph - N/A   Clear
9:53 AM 71.1 °F 55.0 °F 57% 29.99 in 10.0 mi NW 9.2 mph - N/A   Clear
10:53 AM 72.0 °F 55.9 °F 57% 30.02 in 10.0 mi West 10.4 mph - N/A   Clear
11:53 AM 75.9 °F 55.9 °F 50% 30.02 in 10.0 mi WNW 15.0 mph 23.0 mph N/A   Partly Cloudy
12:53 PM 78.1 °F 57.9 °F 50% 30.01 in 10.0 mi WNW 12.7 mph 17.3 mph N/A   Partly Cloudy
1:53 PM 78.1 °F 55.9 °F 46% 30.02 in 10.0 mi NW 9.2 mph - N/A   Partly Cloudy
2:53 PM 78.1 °F 54.0 °F 43% 30.02 in 10.0 mi WNW 10.4 mph 20.7 mph N/A   Clear
3:53 PM 78.1 °F 55.0 °F 45% 30.03 in 10.0 mi NW 12.7 mph - N/A   Partly Cloudy
4:53 PM 77.0 °F 57.0 °F 50% 30.04 in 10.0 mi NNW 12.7 mph 18.4 mph N/A   Partly Cloudy
5:53 PM 75.9 °F 55.9 °F 50% 30.05 in 10.0 mi NNW 13.8 mph - N/A   Clear
6:53 PM 73.0 °F 55.9 °F 55% 30.06 in 10.0 mi North 11.5 mph - N/A   Overcast
7:53 PM 70.0 °F 55.9 °F 61% 30.08 in 10.0 mi North 10.4 mph - N/A   Clear
8:53 PM 66.0 °F 57.0 °F 73% 30.09 in 10.0 mi North 5.8 mph - N/A   Clear
9:53 PM 66.0 °F 55.0 °F 68% 30.12 in 10.0 mi NNE 9.2 mph - N/A   Partly Cloudy
10:15 PM 64.4 °F 55.4 °F 73% 30.14 in 10.0 mi NNE 16.1 mph 23.0 mph N/A   Mostly Cloudy
10:24 PM 64.4 °F 55.4 °F 73% 30.15 in 10.0 mi NNE 12.7 mph 20.7 mph N/A   Scattered Clouds
10:53 PM 63.0 °F 55.0 °F 75% 30.15 in 10.0 mi NNE 9.2 mph - N/A   Clear
11:53 PM 62.1 °F 53.1 °F 72% 30.18 in 10.0 mi NNE 11.5 mph - N/A   Partly Cloudy